Regional Weather Roundup
Issued by NWS Charleston, WV

Home | Current Version | Previous Version | Graphics & Text | Print | Product List | Glossary On
Versions: 1 2 3 4 5 6 7 8 9 10 11 12 13 14 15 16 17 18 19 20 21 22 23 24 25 26 27 28 29 30 31 32 33 34 35 36 37 38 39 40 41 42 43 44 45 46 47 48 49 50
019
ASUS41 KRLX 100010
RWRRLX
West Virginia Regional Weather Roundup
National Weather Service Charleston WV
700 PM EST TUE FEB 09 2016

Note: "fair" indicates few or no clouds below 12,000 feet with no
significant weather and/or obstructions to visibility.

WVZ003-100100-
Northern Panhandle of West Virginia

CITY           SKY/WX    TMP DP  RH WIND       PRES   REMARKS
WHEELING       CLOUDY    25  20  81 W13G25    29.70R
$$

WVZ009-100100-
Northwest West Virginia

CITY           SKY/WX    TMP DP  RH WIND       PRES   REMARKS
PARKERSBURG    LGT SNOW  24  20  84 W13G22    29.82R FOG
$$

WVZ006-100100-
Western West Virginia

CITY           SKY/WX    TMP DP  RH WIND       PRES   REMARKS
HUNTINGTON     FLURRIES  25  18  74 W9        29.85R
$$

WVZ015-100100-
West Central West Virginia

CITY           SKY/WX    TMP DP  RH WIND       PRES   REMARKS
CHARLESTON     LGT SNOW  24  19  81 W10       29.83R VSB 1
$$

WVZ022-031-100100-
North Central West Virginia

CITY           SKY/WX    TMP DP  RH WIND       PRES   REMARKS
CLARKSBURG     LGT SNOW  22  18  85 SW9       29.75R
MORGANTOWN     LGT SNOW  23  17  78 SW9G17    29.73R
$$

WVZ025-035-042-045-100100-
Southern West Virginia

CITY           SKY/WX    TMP DP  RH WIND       PRES   REMARKS
BECKLEY        LGT SNOW  17  11  77 W9        29.73R WCI   6
LOGAN          LGT SNOW  21  16  79 VRB6G13   29.80R
BLUEFIELD      FLURRIES  16  10  77 W12G22    29.71R WCI   3
LEWISBURG      FLURRIES  22  15  74 W5        29.72R
$$

WVZ047-100100-
Northern Mountains of West Virginia

CITY           SKY/WX    TMP DP  RH WIND       PRES   REMARKS
ELKINS         LGT SNOW  21  14  74 W7        29.71R
$$

WVZ052-100100-
Eastern Panhandle of West Virginia

CITY           SKY/WX    TMP DP  RH WIND       PRES   REMARKS
MARTINSBURG    CLOUDY    31  20  63 W16       29.65R
PETERSBURG     MOCLDY    29  14  52 CALM      29.70R
$$




USA.gov is the U.S. government's official web portal to all federal, state and local government web resources and services.